IW9GDC-13 Weather Reports


time (UTC)temp
C
wind
direction
speed
KPH
gust
KPH
rain 1hr
cm
rain 24hr
cm
rain mn
cm
humidity
%
barometer
mb
20260507103517 22 180 24.1 45.1 0.00 0.00 0.00 37 1011.8
20260507103017 22 180 20.9 43.5 0.00 0.00 0.00 37 1011.5
20260507102516 22 158 19.3 45.1 0.00 0.00 0.00 36 1011.6
20260507102016 23 135 20.9 35.4 0.00 0.00 0.00 36 1011.7
20260507101517 23 158 25.7 56.3 0.00 0.00 0.00 34 1011.6
20260507101017 23 135 20.9 56.3 0.00 0.00 0.00 36 1011.9
20260507100516 23 158 16.1 27.4 0.00 0.00 0.00 37 1012.0
20260507100016 23 158 22.5 38.6 0.00 0.00 0.00 36 1012.1
20260507095537 23 158 22.5 35.4 0.00 0.00 0.00 35 1012.1
20260507095016 23 158 25.7 37.0 0.00 0.00 0.00 35 1012.1
20260507094517 23 180 24.1 51.5 0.00 0.00 0.00 34 1012.1
20260507094016 23 135 24.1 40.2 0.00 0.00 0.00 37 1012.1
20260507093536 23 135 25.7 41.8 0.00 0.00 0.00 35 1012.1
20260507093037 22 158 25.7 46.7 0.00 0.00 0.00 38 1012.0
20260507092537 23 180 25.7 53.1 0.00 0.00 0.00 34 1012.0
20260507092016 23 180 30.6 53.1 0.00 0.00 0.00 35 1012.1
20260507091537 22 180 22.5 43.5 0.00 0.00 0.00 36 1012.0
20260507091036 22 180 24.1 41.8 0.00 0.00 0.00 39 1012.0
20260507090516 22 180 20.9 33.8 0.00 0.00 0.00 39 1012.1
20260507090016 22 158 20.9 43.5 0.00 0.00 0.00 41 1012.0
20260507085516 22 180 20.9 45.1 0.00 0.00 0.00 41 1012.3
20260507085016 22 180 17.7 35.4 0.00 0.00 0.00 42 1012.2
20260507084537 22 158 20.9 32.2 0.00 0.00 0.00 43 1012.3
20260507084036 22 180 24.1 43.5 0.00 0.00 0.00 40 1012.4
20260507083536 21 180 22.5 37.0 0.00 0.00 0.00 41 1012.4
20260507083016 21 180 17.7 32.2 0.00 0.00 0.00 43 1012.3
20260507082516 21 180 20.9 37.0 0.00 0.00 0.00 43 1012.4
20260507082016 21 180 17.7 33.8 0.00 0.00 0.00 43 1012.3
20260507081516 21 180 19.3 32.2 0.00 0.00 0.00 41 1012.4
20260507081036 21 180 16.1 30.6 0.00 0.00 0.00 45 1012.3
20260507080536 21 158 17.7 33.8 0.00 0.00 0.00 46 1012.5
20260507080016 21 180 12.9 22.5 0.00 0.00 0.00 46 1012.5
20260507075516 21 180 17.7 30.6 0.00 0.00 0.00 47 1012.6
20260507075016 21 180 14.5 24.1 0.00 0.00 0.00 45 1012.8
20260507074516 21 180 16.1 24.1 0.00 0.00 0.00 44 1012.8
20260507074036 21 135 12.9 29.0 0.00 0.00 0.00 44 1012.8
20260507073516 21 135 12.9 22.5 0.00 0.00 0.00 43 1013.0
20260507073016 21 158 9.7 19.3 0.00 0.00 0.00 44 1013.1
20260507072516 21 158 9.7 25.7 0.00 0.00 0.00 43 1013.2
20260507072016 21 180 11.3 20.9 0.00 0.00 0.00 44 1013.0
20260507071516 21 180 14.5 27.4 0.00 0.00 0.00 44 1013.1
20260507071036 21 180 16.1 27.4 0.00 0.00 0.00 44 1013.1
20260507070516 21 180 16.1 30.6 0.00 0.00 0.00 45 1013.2
20260507070016 21 180 14.5 27.4 0.00 0.00 0.00 45 1013.3
20260507065516 21 158 11.3 29.0 0.00 0.00 0.00 44 1013.4
20260507065016 21 158 9.7 19.3 0.00 0.00 0.00 44 1013.4
20260507064516 20 158 14.5 27.4 0.00 0.00 0.00 42 1013.7
20260507064016 20 158 17.7 30.6 0.00 0.00 0.00 43 1013.8
20260507063516 20 180 9.7 17.7 0.00 0.00 0.00 44 1013.8
20260507063016 20 180 11.3 20.9 0.00 0.00 0.00 44 1013.7
20260507062516 20 158 14.5 27.4 0.00 0.00 0.00 44 1013.8
20260507062016 20 180 9.7 25.7 0.00 0.00 0.00 46 1013.8
20260507061516 20 203 9.7 17.7 0.00 0.00 0.00 46 1013.8
20260507061018 20 180 11.3 20.9 0.00 0.00 0.00 45 1013.9
20260507060518 19 180 11.3 20.9 0.00 0.00 0.00 45 1013.8
20260507060038 19 203 12.9 20.9 0.00 0.00 0.00 47 1013.7
20260507055518 19 203 14.5 24.1 0.00 0.00 0.00 49 1013.7
20260507055018 19 203 14.5 25.7 0.00 0.00 0.00 48 1013.7
20260507054518 19 203 11.3 20.9 0.00 0.00 0.00 50 1013.8
20260507054018 19 225 14.5 24.1 0.00 0.00 0.00 50 1013.8
20260507053538 19 225 9.7 19.3 0.00 0.00 0.00 51 1013.8
20260507053018 18 225 12.9 22.5 0.00 0.00 0.00 52 1013.8
20260507052518 18 225 11.3 17.7 0.00 0.00 0.00 53 1013.9
20260507052038 18 225 8.0 20.9 0.00 0.00 0.00 55 1013.8
20260507051538 18 225 12.9 25.7 0.00 0.00 0.00 54 1013.9
20260507051018 18 225 12.9 20.9 0.00 0.00 0.00 58 1013.9
20260507050517 18 225 16.1 25.7 0.00 0.00 0.00 56 1013.9
20260507050018 18 225 12.9 24.1 0.00 0.00 0.00 59 1013.8
20260507045518 18 225 16.1 24.1 0.00 0.00 0.00 60 1013.7
20260507045018 18 203 14.5 22.5 0.00 0.00 0.00 60 1014.0
20260507044517 18 203 14.5 29.0 0.00 0.00 0.00 59 1014.1
20260507044019 18 225 11.3 20.9 0.00 0.00 0.00 58 1014.2
20260507043518 18 203 12.9 24.1 0.00 0.00 0.00 58 1014.1
20260507043017 18 180 6.4 16.1 0.00 0.00 0.00 56 1014.2
20260507042518 18 158 11.3 24.1 0.00 0.00 0.00 54 1014.1
20260507042017 18 180 12.9 20.9 0.00 0.00 0.00 54 1014.2
20260507041518 18 203 11.3 20.9 0.00 0.00 0.00 53 1014.2
20260507041018 18 180 9.7 19.3 0.00 0.00 0.00 53 1014.3
20260507040517 18 180 9.7 20.9 0.00 0.00 0.00 53 1014.2
20260507040018 18 180 9.7 19.3 0.00 0.00 0.00 53 1014.3
20260507035517 18 158 6.4 14.5 0.00 0.00 0.00 53 1014.1
20260507035038 18 180 6.4 11.3 0.00 0.00 0.00 53 1014.1
20260507034538 18 180 4.8 11.3 0.00 0.00 0.00 53 1014.0
20260507034038 18 203 9.7 17.7 0.00 0.00 0.00 53 1014.2
20260507033517 18 203 6.4 12.9 0.00 0.00 0.00 52 1014.0
20260507033017 18 203 8.0 14.5 0.00 0.00 0.00 53 1013.9
20260507032518 18 203 4.8 9.7 0.00 0.00 0.00 54 1013.9
20260507032018 18 203 4.8 9.7 0.00 0.00 0.00 55 1013.9
20260507031557 18 225 4.8 8.0 0.00 0.00 0.00 55 1013.9
20260507031017 18 225 6.4 14.5 0.00 0.00 0.00 57 1014.0
20260507030518 18 203 3.2 11.3 0.00 0.00 0.00 58 1013.8
20260507030017 18 225 9.7 16.1 0.00 0.00 0.00 58 1013.9
20260507025517 18 225 8.0 14.5 0.00 0.00 0.00 59 1013.8
20260507025017 18 225 11.3 19.3 0.00 0.00 0.00 61 1013.8
20260507024517 17 225 9.7 19.3 0.00 0.00 0.00 64 1013.9
20260507024017 17 225 8.0 14.5 0.00 0.00 0.00 66 1013.7
20260507023517 17 248 8.0 14.5 0.00 0.00 0.00 69 1013.7
20260507023017 17 225 8.0 16.1 0.00 0.00 0.00 74 1014.0
20260507022537 17 203 6.4 11.3 0.00 0.00 0.00 77 1013.8
20260507022017 17 225 8.0 11.3 0.00 0.00 0.00 79 1013.8
20260507021517 17 225 14.5 20.9 0.00 0.00 0.00 81 1014.0
20260507021017 16 225 12.9 20.9 0.00 0.00 0.00 82 1014.2
20260507020517 16 225 9.7 17.7 0.00 0.00 0.00 83 1014.2
20260507020018 17 225 12.9 22.5 0.00 0.00 0.00 83 1014.3
20260507015517 17 203 9.7 19.3 0.00 0.00 0.00 81 1014.1
20260507015017 16 203 9.7 17.7 0.00 0.00 0.00 82 1013.9
20260507014517 16 203 8.0 20.9 0.00 0.00 0.00 83 1014.1
20260507014017 16 180 6.4 11.3 0.00 0.00 0.00 83 1014.1
20260507013517 16 158 4.8 8.0 0.00 0.00 0.00 82 1014.2
20260507013017 17 180 4.8 6.4 0.00 0.00 0.00 82 1014.5
20260507012517 17 158 4.8 8.0 0.00 0.00 0.00 82 1014.5
20260507012037 17 158 6.4 11.3 0.00 0.00 0.00 82 1014.5
20260507011517 17 180 3.2 6.4 0.00 0.00 0.00 80 1014.4
20260507011017 17 158 3.2 8.0 0.00 0.00 0.00 79 1014.5
20260507010517 17 158 1.6 4.8 0.00 0.00 0.00 79 1014.6
20260507010017 17 180 3.2 6.4 0.00 0.00 0.00 79 1014.7
20260507005517 17 180 3.2 9.7 0.00 0.00 0.00 78 1014.6
20260507005017 17 180 3.2 6.4 0.00 0.00 0.00 78 1014.6
20260507004537 17 158 3.2 4.8 0.00 0.00 0.00 78 1014.6
20260507004017 17 180 1.6 4.8 0.00 0.00 0.00 78 1014.7
20260507003517 17 0.0 3.2 0.00 0.00 0.00 78 1014.7
20260507003017 17 158 1.6 4.8 0.00 0.00 0.00 78 1014.7
20260507002517 17 203 1.6 3.2 0.00 0.00 0.00 78 1014.8
20260507002017 17 180 1.6 4.8 0.00 0.00 0.00 78 1014.8
20260507001517 17 180 3.2 9.7 0.00 0.00 0.00 78 1014.8
20260507001017 17 203 6.4 11.3 0.00 0.00 0.00 78 1014.8
20260507000517 17 135 6.4 16.1 0.00 0.00 0.00 78 1014.8
20260507000017 17 158 4.8 9.7 0.00 0.00 0.00 78 1014.7
20260506235517 17 158 6.4 11.3 0.00 0.00 0.00 78 1014.8
20260506235017 17 158 4.8 19.3 0.00 0.00 0.00 79 1014.7
20260506234517 17 158 6.4 17.7 0.00 0.00 0.00 79 1014.8
20260506234017 17 158 8.0 14.5 0.00 0.00 0.00 79 1014.9
20260506233517 17 158 8.0 17.7 0.00 0.00 0.00 80 1014.9
20260506233017 17 158 9.7 16.1 0.00 0.00 0.00 80 1014.9
20260506232517 17 180 8.0 17.7 0.00 0.00 0.00 80 1014.8
20260506232017 17 180 9.7 22.5 0.00 0.00 0.00 79 1014.8
20260506231517 17 158 9.7 24.1 0.00 0.00 0.00 79 1014.8
20260506231017 17 158 9.7 20.9 0.00 0.00 0.00 78 1014.7
20260506230517 17 158 14.5 25.7 0.00 0.00 0.00 78 1014.6
20260506230017 17 158 14.5 25.7 0.00 0.00 0.00 78 1014.6
20260506225517 17 158 11.3 27.4 0.00 0.00 0.00 78 1014.5
20260506225017 17 158 17.7 25.7 0.00 0.00 0.00 77 1014.4
20260506224517 17 180 11.3 20.9 0.00 0.00 0.00 77 1014.5
20260506224017 17 180 11.3 19.3 0.00 0.00 0.00 75 1014.4
20260506223517 17 203 16.1 22.5 0.00 0.00 0.00 74 1014.3
20260506223017 17 180 9.7 25.7 0.00 0.00 0.00 73 1014.3
20260506222517 17 203 14.5 25.7 0.00 0.00 0.00 70 1014.3
20260506222017 17 203 16.1 32.2 0.00 0.00 0.00 69 1014.4
20260506221517 17 225 14.5 29.0 0.00 0.00 0.00 69 1014.3
20260506221017 17 203 14.5 27.4 0.00 0.00 0.00 67 1014.3
20260506220516 17 203 12.9 24.1 0.00 0.00 0.00 67 1014.3
20260506220037 18 203 17.7 30.6 0.00 0.00 0.00 66 1014.1
20260506215516 17 225 16.1 33.8 0.00 0.00 0.00 66 1014.2
20260506215037 17 180 12.9 22.5 0.00 0.00 0.00 65 1014.4
20260506214516 17 203 11.3 22.5 0.00 0.00 0.00 65 1014.2
20260506214016 17 203 17.7 27.4 0.00 0.00 0.00 65 1013.9
20260506213516 17 225 17.7 33.8 0.00 0.00 0.00 68 1014.0
20260506213036 17 203 14.5 24.1 0.00 0.00 0.00 72 1014.0
20260506212516 17 225 12.9 19.3 0.00 0.00 0.00 75 1013.9
20260506212016 17 203 11.3 20.9 0.00 0.00 0.00 77 1013.7
20260506211516 17 225 11.3 20.9 0.00 0.00 0.00 78 1013.7
20260506211016 16 225 8.0 16.1 0.00 0.00 0.00 79 1013.7
20260506210516 16 203 9.7 17.7 0.00 0.00 0.00 80 1013.9
20260506210016 16 203 9.7 14.5 0.00 0.00 0.00 82 1014.1
20260506205536 16 203 6.4 11.3 0.00 0.00 0.00 83 1014.2
20260506205016 17 203 6.4 17.7 0.00 0.00 0.00 84 1014.4
20260506204516 17 158 4.8 8.0 0.00 0.00 0.00 84 1014.5
20260506204016 17 180 4.8 11.3 0.00 0.00 0.00 84 1014.6
20260506203516 16 158 6.4 11.3 0.00 0.00 0.00 85 1014.7
20260506203036 17 158 3.2 8.0 0.00 0.00 0.00 84 1014.9
20260506202516 17 203 1.6 4.8 0.00 0.00 0.00 84 1014.9
20260506202016 17 203 3.2 8.0 0.00 0.00 0.00 84 1015.2
20260506201516 17 180 4.8 8.0 0.00 0.00 0.00 84 1015.2
20260506201016 17 158 6.4 9.7 0.00 0.00 0.00 84 1015.3
20260506200536 17 180 8.0 14.5 0.00 0.00 0.00 84 1015.4
20260506200036 17 180 6.4 16.1 0.00 0.00 0.00 84 1015.5
20260506195516 17 158 8.0 16.1 0.00 0.00 0.00 84 1015.6
20260506195016 17 158 9.7 16.1 0.00 0.00 0.00 85 1015.6
20260506194516 17 158 9.7 17.7 0.00 0.00 0.00 85 1015.5
20260506194036 17 158 9.7 16.1 0.00 0.00 0.00 84 1015.5
20260506193516 17 158 8.0 14.5 0.00 0.00 0.00 84 1015.5
20260506193016 17 158 12.9 20.9 0.00 0.00 0.00 85 1015.5
20260506192516 17 158 8.0 16.1 0.00 0.00 0.00 85 1015.5
20260506192036 17 135 9.7 19.3 0.00 0.00 0.00 84 1015.5
20260506191516 17 158 6.4 16.1 0.00 0.00 0.00 84 1015.6
20260506191016 17 135 9.7 25.7 0.00 0.00 0.00 84 1015.6
20260506190516 17 158 9.7 20.9 0.00 0.00 0.00 84 1015.6
20260506190016 17 158 8.0 16.1 0.00 0.00 0.00 84 1015.6
20260506185536 17 158 12.9 25.7 0.00 0.00 0.00 84 1015.6
20260506185016 17 158 11.3 20.9 0.00 0.00 0.00 84 1015.5
20260506184516 17 158 11.3 22.5 0.00 0.00 0.00 84 1015.3
20260506184016 17 158 8.0 16.1 0.00 0.00 0.00 84 1015.4
20260506183516 17 180 11.3 20.9 0.00 0.00 0.00 83 1015.2
20260506183016 17 158 8.0 17.7 0.00 0.00 0.00 83 1015.0
20260506182516 17 158 8.0 16.1 0.00 0.00 0.00 83 1015.0
20260506182036 17 135 9.7 17.7 0.00 0.00 0.00 83 1015.2
20260506181518 17 180 9.7 20.9 0.00 0.00 0.00 83 1015.0
20260506181018 17 158 11.3 20.9 0.00 0.00 0.00 84 1015.0
20260506180538 17 158 9.7 17.7 0.00 0.00 0.00 83 1014.9
20260506180018 17 180 8.0 11.3 0.00 0.00 0.00 84 1014.8
20260506175518 17 180 9.7 17.7 0.00 0.00 0.00 83 1014.9
20260506175038 17 180 11.3 24.1 0.00 0.00 0.00 83 1014.8
20260506174518 17 158 11.3 20.9 0.00 0.00 0.00 83 1014.6
20260506174018 17 158 6.4 14.5 0.00 0.00 0.00 83 1014.6
20260506173518 17 180 6.4 9.7 0.00 0.00 0.00 83 1014.6
20260506173018 17 158 11.3 17.7 0.00 0.00 0.00 83 1014.5
20260506172518 17 158 6.4 11.3 0.00 0.00 0.00 83 1014.5
20260506172018 17 203 6.4 16.1 0.00 0.00 0.00 83 1014.5
20260506171517 17 158 6.4 11.3 0.00 0.00 0.00 83 1014.6
20260506171038 17 158 9.7 17.7 0.00 0.00 0.00 83 1014.7
20260506170518 17 180 9.7 17.7 0.00 0.00 0.00 83 1014.8
20260506170018 17 180 11.3 19.3 0.00 0.00 0.00 83 1014.9
20260506165518 17 180 11.3 19.3 0.00 0.00 0.00 83 1014.8
20260506165018 17 158 12.9 22.5 0.00 0.00 0.00 83 1015.0
20260506164518 17 158 11.3 20.9 0.00 0.00 0.00 83 1014.9
20260506164058 17 158 12.9 22.5 0.00 0.00 0.00 83 1014.9
20260506163517 17 135 9.7 17.7 0.00 0.00 0.00 83 1015.0
20260506163017 17 135 9.7 20.9 0.00 0.00 0.00 83 1015.0
20260506162517 17 158 9.7 19.3 0.00 0.00 0.00 83 1015.1
20260506162018 17 135 12.9 20.9 0.00 0.00 0.00 82 1015.0
20260506161517 17 135 12.9 19.3 0.00 0.00 0.00 82 1015.1
20260506161018 17 135 11.3 19.3 0.00 0.00 0.00 82 1015.3
20260506160517 17 135 9.7 20.9 0.00 0.00 0.00 82 1015.4
20260506160017 17 158 12.9 24.1 0.00 0.00 0.00 82 1015.4
20260506155518 17 135 11.3 22.5 0.00 0.00 0.00 81 1015.4
20260506155038 17 135 9.7 17.7 0.00 0.00 0.00 81 1015.4
20260506154517 18 135 9.7 24.1 0.00 0.00 0.00 81 1015.4
20260506154018 17 135 12.9 20.9 0.00 0.00 0.00 81 1015.5
20260506153517 17 135 14.5 24.1 0.00 0.00 0.00 81 1015.5
20260506153018 17 158 14.5 27.4 0.00 0.00 0.00 81 1015.5
20260506152517 18 135 9.7 22.5 0.00 0.00 0.00 81 1015.5
20260506152018 18 135 11.3 17.7 0.00 0.00 0.00 81 1015.5
20260506151517 18 135 16.1 25.7 0.00 0.00 0.00 80 1015.5
20260506151017 18 135 12.9 22.5 0.00 0.00 0.00 80 1015.6
20260506150537 18 135 17.7 33.8 0.00 0.00 0.00 80 1015.4
20260506150017 18 135 16.1 27.4 0.00 0.00 0.00 79 1015.3
20260506145517 18 180 14.5 27.4 0.00 0.00 0.00 78 1015.3
20260506145017 18 158 16.1 29.0 0.00 0.00 0.00 78 1015.5
20260506144517 18 135 17.7 30.6 0.00 0.00 0.00 78 1015.4
20260506144017 18 158 16.1 24.1 0.00 0.00 0.00 79 1015.4
20260506143517 18 135 14.5 27.4 0.00 0.00 0.00 80 1015.2
20260506143017 18 158 16.1 27.4 0.00 0.00 0.00 80 1015.2
20260506142518 18 158 16.1 29.0 0.00 0.00 0.00 79 1015.0
20260506142017 18 158 14.5 27.4 0.00 0.00 0.00 79 1015.0
20260506141517 18 158 14.5 29.0 0.00 0.00 0.00 78 1015.0
20260506141017 18 135 14.5 27.4 0.00 0.00 0.00 79 1015.0
20260506140517 18 135 19.3 33.8 0.00 0.00 0.00 79 1015.2
20260506140017 18 135 19.3 33.8 0.00 0.00 0.00 79 1015.2
20260506135517 18 135 16.1 35.4 0.00 0.00 0.00 78 1015.3
20260506135037 18 158 16.1 27.4 0.00 0.00 0.00 79 1015.2
20260506134518 18 135 17.7 30.6 0.00 0.00 0.00 79 1015.3
20260506134017 18 135 17.7 27.4 0.00 0.00 0.00 78 1015.2
20260506133518 18 135 17.7 29.0 0.00 0.00 0.00 78 1015.3
20260506133017 18 135 17.7 29.0 0.00 0.00 0.00 78 1015.3
20260506132557 18 158 16.1 30.6 0.00 0.00 0.00 78 1015.4
20260506132037 18 135 17.7 32.2 0.00 0.00 0.00 78 1015.4
20260506131517 18 135 19.3 30.6 0.00 0.00 0.00 78 1015.4
20260506131017 18 135 17.7 37.0 0.00 0.00 0.00 78 1015.5
20260506130537 19 158 16.1 33.8 0.00 0.00 0.00 77 1015.5
20260506130017 18 158 19.3 32.2 0.00 0.00 0.00 79 1015.6
20260506125517 18 135 17.7 29.0 0.00 0.00 0.00 78 1015.6
20260506125017 18 135 19.3 35.4 0.00 0.00 0.00 78 1015.6
20260506124537 18 135 19.3 33.8 0.00 0.00 0.00 78 1015.6
20260506124017 18 158 16.1 33.8 0.00 0.00 0.00 78 1015.8
20260506123517 18 135 20.9 38.6 0.00 0.00 0.00 79 1015.7
20260506123017 18 135 19.3 38.6 0.00 0.00 0.00 78 1015.7
20260506122537 18 158 17.7 35.4 0.00 0.00 0.00 77 1015.9
20260506122017 18 135 14.5 30.6 0.00 0.00 0.00 78 1015.9
20260506121517 18 135 16.1 30.6 0.00 0.00 0.00 78 1015.7
20260506121017 18 135 16.1 25.7 0.00 0.00 0.00 78 1015.8
20260506120517 18 135 17.7 30.6 0.00 0.00 0.00 78 1015.8
20260506120017 18 135 16.1 29.0 0.00 0.00 0.00 78 1015.7
20260506115537 18 158 12.9 25.7 0.00 0.00 0.00 78 1015.6
20260506115017 18 158 17.7 30.6 0.00 0.00 0.00 78 1015.8
20260506114517 18 158 19.3 32.2 0.00 0.00 0.00 77 1015.9
20260506114037 18 135 17.7 29.0 0.00 0.00 0.00 78 1016.0
20260506113517 18 135 17.7 30.6 0.00 0.00 0.00 77 1016.0
20260506113017 18 135 17.7 30.6 0.00 0.00 0.00 77 1016.0
20260506112517 18 135 19.3 32.2 0.00 0.00 0.00 77 1016.2
20260506112017 18 135 17.7 29.0 0.00 0.00 0.00 78 1016.0
20260506111517 18 135 17.7 27.4 0.00 0.00 0.00 79 1016.1
20260506111017 18 135 17.7 29.0 0.00 0.00 0.00 79 1016.1
20260506110517 18 158 19.3 29.0 0.00 0.00 0.00 79 1016.1
20260506110017 18 158 17.7 30.6 0.00 0.00 0.00 79 1016.3
20260506105517 18 135 17.7 29.0 0.00 0.00 0.00 80 1016.2
20260506105017 18 135 19.3 32.2 0.00 0.00 0.00 81 1016.1
20260506104517 18 113 19.3 29.0 0.00 0.00 0.00 81 1016.1
20260506104017 18 135 17.7 33.8 0.00 0.00 0.00 81 1016.2